When you browse on this site, cookies collect data to enhance your experience and personalize the content and advertising you see.
Visit our Privacy Policy to learn more. By continuing to use the site, you agree to this use of cookies and data.
  • In Latvia
  • List of Countries
  • For 7 days
  • Water Temperature
  • Satellite Maps
  • Weather Map
  • Weather Widgets
  • user-avatar
    Login

    Hourly Weather Skrunda

    Today, 25 May, Saturday

    Time Temperature Precipitation Wind Pressure Humidity
    00:00 +10°C° 0 mm 2 mps 753 mmHg 77%
    01:00 +9°C° 0 mm 2 mps 753 mmHg 75%
    02:00 +9°C° 0.1 mm 2 mps 752 mmHg 77%
    03:00 +10°C° 0.1 mm 3 mps 752 mmHg 79%
    04:00 +10°C° 0.1 mm 3 mps 752 mmHg 81%
    05:00 +10°C° 0.2 mm 3 mps 752 mmHg 84%
    06:00 +11°C° 0.2 mm 3 mps 752 mmHg 87%
    07:00 +12°C° 0.2 mm 3 mps 752 mmHg 89%
    08:00 +13°C° 0 mm 4 mps 752 mmHg 79%
    09:00 +14°C° 0 mm 4 mps 752 mmHg 69%
    10:00 +16°C° 0 mm 5 mps 752 mmHg 58%
    11:00 +16°C° 0 mm 5 mps 752 mmHg 58%
    12:00 +16°C° 0 mm 5 mps 752 mmHg 58%
    13:00 +16°C° 0 mm 5 mps 752 mmHg 58%
    14:00 +15°C° 0 mm 5 mps 752 mmHg 61%
    15:00 +15°C° 0 mm 5 mps 753 mmHg 63%
    16:00 +14°C° 0 mm 4 mps 753 mmHg 66%
    17:00 +13°C° 0 mm 4 mps 753 mmHg 71%
    18:00 +12°C° 0 mm 3 mps 753 mmHg 76%
    19:00 +11°C° 0 mm 3 mps 753 mmHg 81%
    20:00 +10°C° 0 mm 2 mps 753 mmHg 87%
    21:00 +9°C° 0 mm 2 mps 753 mmHg 92%
    22:00 +7°C° 0 mm 2 mps 753 mmHg 98%
    23:00 +7°C° 0 mm 2 mps 752 mmHg 98%

    Tomorrow, 26 May, Sunday

    Time Temperature Precipitation Wind Pressure Humidity
    00:00 +7°C° 0 mm 3 mps 752 mmHg 98%
    01:00 +7°C° 0 mm 3 mps 752 mmHg 98%
    02:00 +8°C° 0 mm 3 mps 751 mmHg 97%
    03:00 +8°C° 0 mm 4 mps 751 mmHg 95%
    04:00 +9°C° 0 mm 5 mps 751 mmHg 94%
    05:00 +9°C° 0 mm 5 mps 750 mmHg 90%
    06:00 +10°C° 0 mm 5 mps 750 mmHg 85%
    07:00 +12°C° 0 mm 5 mps 750 mmHg 81%
    08:00 +12°C° 0.2 mm 5 mps 750 mmHg 82%
    09:00 +10°C° 0.2 mm 5 mps 750 mmHg 83%
    10:00 +10°C° 0.2 mm 6 mps 750 mmHg 85%
    11:00 +10°C° 0.2 mm 6 mps 750 mmHg 84%
    12:00 +10°C° 0.2 mm 7 mps 750 mmHg 83%
    13:00 +10°C° 0.2 mm 7 mps 750 mmHg 83%
    14:00 +9°C° 0.5 mm 7 mps 750 mmHg 86%
    15:00 +9°C° 0.5 mm 7 mps 749 mmHg 90%
    16:00 +9°C° 0.5 mm 7 mps 749 mmHg 94%
    17:00 +9°C° 0.2 mm 7 mps 749 mmHg 93%
    18:00 +9°C° 0.2 mm 6 mps 749 mmHg 93%
    19:00 +9°C° 0.2 mm 6 mps 749 mmHg 93%
    20:00 +8°C° 0 mm 5 mps 749 mmHg 94%
    21:00 +8°C° 0 mm 5 mps 749 mmHg 95%
    22:00 +8°C° 0 mm 4 mps 749 mmHg 96%
    23:00 +8°C° 0 mm 4 mps 749 mmHg 96%

    Day after tomorrow, 27 May, Monday

    Time Temperature Precipitation Wind Pressure Humidity
    00:00 +7°C° 0 mm 4 mps 749 mmHg 96%
    01:00 +8°C° 0 mm 3 mps 750 mmHg 97%
    02:00 +8°C° 0 mm 3 mps 750 mmHg 97%
    03:00 +8°C° 0 mm 3 mps 750 mmHg 97%
    04:00 +8°C° 0 mm 2 mps 750 mmHg 98%
    05:00 +9°C° 0 mm 2 mps 750 mmHg 94%
    06:00 +10°C° 0 mm 3 mps 750 mmHg 90%
    07:00 +12°C° 0 mm 3 mps 750 mmHg 86%
    08:00 +12°C° 1.5 mm 2 mps 750 mmHg 89%
    09:00 +12°C° 1.5 mm 1 mps 750 mmHg 92%
    10:00 +11°C° 1.5 mm 1 mps 750 mmHg 96%
    11:00 +12°C° 0.7 mm 1 mps 750 mmHg 95%
    12:00 +12°C° 0.7 mm 1 mps 750 mmHg 94%
    13:00 +12°C° 0.7 mm 1 mps 750 mmHg 93%
    14:00 +13°C° 0 mm 1 mps 750 mmHg 92%
    15:00 +14°C° 0 mm 2 mps 750 mmHg 92%
    16:00 +15°C° 0 mm 2 mps 750 mmHg 91%
    17:00 +14°C° 0.1 mm 2 mps 750 mmHg 92%
    18:00 +13°C° 0.1 mm 3 mps 750 mmHg 93%
    19:00 +13°C° 0.1 mm 3 mps 750 mmHg 93%
    20:00 +12°C° 0 mm 3 mps 750 mmHg 95%
    21:00 +11°C° 0 mm 3 mps 750 mmHg 96%
    22:00 +10°C° 0 mm 2 mps 750 mmHg 98%
    23:00 +10°C° 0 mm 3 mps 750 mmHg 97%

    28 May, Tuesday

    Time Temperature Precipitation Wind Pressure Humidity
    00:00 +10°C° 0 mm 3 mps 751 mmHg 97%
    01:00 +10°C° 0 mm 3 mps 751 mmHg 97%
    02:00 +10°C° 0 mm 2 mps 751 mmHg 97%
    03:00 +9°C° 0 mm 2 mps 751 mmHg 97%
    04:00 +9°C° 0 mm 2 mps 752 mmHg 97%
    05:00 +10°C° 0 mm 2 mps 752 mmHg 92%
    06:00 +12°C° 0 mm 2 mps 752 mmHg 88%
    07:00 +14°C° 0 mm 2 mps 753 mmHg 83%
    08:00 +15°C° 0 mm 2 mps 753 mmHg 74%
    09:00 +16°C° 0 mm 3 mps 753 mmHg 66%
    10:00 +18°C° 0 mm 3 mps 754 mmHg 57%
    11:00 +18°C° 0 mm 3 mps 754 mmHg 55%
    12:00 +18°C° 0 mm 3 mps 754 mmHg 54%
    13:00 +19°C° 0 mm 3 mps 754 mmHg 53%
    14:00 +18°C° 0 mm 3 mps 754 mmHg 55%
    15:00 +18°C° 0 mm 3 mps 754 mmHg 58%
    16:00 +17°C° 0 mm 3 mps 754 mmHg 60%
    17:00 +16°C° 0 mm 2 mps 754 mmHg 67%
    18:00 +15°C° 0 mm 2 mps 754 mmHg 74%
    19:00 +14°C° 0 mm 1 mps 754 mmHg 81%
    20:00 +12°C° 0 mm 1 mps 754 mmHg 85%
    21:00 +11°C° 0 mm 1 mps 754 mmHg 90%
    22:00 +9°C° 0 mm 1 mps 754 mmHg 95%
    23:00 +9°C° 0 mm 1 mps 754 mmHg 93%

    29 May, Wednesday

    Time Temperature Precipitation Wind Pressure Humidity
    00:00 +10°C° 0 mm 1 mps 754 mmHg 92%
    01:00 +10°C° 0 mm 1 mps 754 mmHg 91%
    02:00 +10°C° 0 mm 1 mps 754 mmHg 90%
    03:00 +10°C° 0 mm 1 mps 754 mmHg 88%
    04:00 +10°C° 0 mm 1 mps 754 mmHg 87%
    05:00 +12°C° 0 mm 1 mps 754 mmHg 82%
    06:00 +13°C° 0 mm 2 mps 754 mmHg 76%
    07:00 +14°C° 0 mm 2 mps 755 mmHg 71%
    08:00 +14°C° 0 mm 3 mps 755 mmHg 65%
    09:00 +16°C° 0 mm 3 mps 755 mmHg 59%
    10:00 +17°C° 0 mm 4 mps 756 mmHg 54%
    11:00 +17°C° 0 mm 4 mps 756 mmHg 52%
    12:00 +15°C° 0 mm 5 mps 757 mmHg 51%
    13:00 +15°C° 0 mm 5 mps 757 mmHg 49%
    14:00 +15°C° 0 mm 5 mps 757 mmHg 48%
    15:00 +14°C° 0 mm 5 mps 758 mmHg 47%
    16:00 +13°C° 0 mm 4 mps 758 mmHg 46%
    17:00 +12°C° 0 mm 4 mps 759 mmHg 52%
    18:00 +11°C° 0 mm 3 mps 759 mmHg 57%
    19:00 +10°C° 0 mm 2 mps 759 mmHg 63%
    20:00 +8°C° 0 mm 2 mps 760 mmHg 68%
    21:00 +7°C° 0 mm 2 mps 760 mmHg 72%
    22:00 +6°C° 0 mm 2 mps 761 mmHg 76%
    23:00 +6°C° 0 mm 2 mps 761 mmHg 80%

    30 May, Thursday

    Time Temperature Precipitation Wind Pressure Humidity
    00:00 +6°C° 0 mm 2 mps 761 mmHg 83%
    01:00 +6°C° 0 mm 2 mps 761 mmHg 87%
    02:00 +6°C° 0 mm 2 mps 761 mmHg 87%
    03:00 +6°C° 0 mm 2 mps 762 mmHg 87%
    04:00 +7°C° 0 mm 2 mps 762 mmHg 87%
    05:00 +9°C° 0 mm 3 mps 762 mmHg 79%
    06:00 +11°C° 0 mm 3 mps 762 mmHg 70%
    07:00 +13°C° 0 mm 4 mps 762 mmHg 61%
    08:00 +13°C° 0 mm 5 mps 762 mmHg 57%
    09:00 +14°C° 0 mm 5 mps 762 mmHg 53%
    10:00 +15°C° 0 mm 6 mps 762 mmHg 49%
    11:00 +15°C° 0 mm 6 mps 762 mmHg 48%
    12:00 +16°C° 0 mm 6 mps 762 mmHg 48%
    13:00 +16°C° 0 mm 6 mps 762 mmHg 47%
    14:00 +16°C° 0 mm 6 mps 762 mmHg 48%
    15:00 +15°C° 0 mm 6 mps 761 mmHg 48%
    16:00 +15°C° 0 mm 5 mps 761 mmHg 48%
    17:00 +14°C° 0 mm 5 mps 760 mmHg 53%
    18:00 +13°C° 0 mm 4 mps 760 mmHg 57%
    19:00 +12°C° 0 mm 3 mps 760 mmHg 62%
    20:00 +12°C° 0 mm 4 mps 759 mmHg 64%
    21:00 +11°C° 0 mm 4 mps 759 mmHg 65%
    22:00 +11°C° 0 mm 4 mps 759 mmHg 67%
    23:00 +11°C° 0 mm 4 mps 758 mmHg 67%
    Show more